Regional Weather Roundup
Issued by NWS

Home | Current Version | Previous Version | Graphics & Text | Print | Product List | Glossary Off
Versions: 1 2 3 4 5 6 7 8 9 10 11 12 13 14 15 16 17 18 19 20 21 22 23 24 25 26 27 28 29 30 31 32 33 34 35 36 37 38 39 40 41 42 43 44 45 46 47 48 49 50

000
ASUS43 KLSX 192207
RWRMO

WEATHER SUMMARY FOR MISSOURI
NATIONAL WEATHER SERVICE SPRINGFIELD MO
500 PM CDT THU APR 19 2018

NOTE: "FAIR" INDICATES FEW OR NO CLOUDS BELOW 12,000 FEET WITH NO
       SIGNIFICANT WEATHER AND/OR OBSTRUCTIONS TO VISIBILITY.
       CURRENT SKY AND/OR WEATHER CONDITIONS ARE NOT AVAILABLE FOR
       CHILLICOTHE AND FARMINGTON.

MOZ001>031-035>038-043-044-053-054-192300-
...NORTHERN AND WESTERN MISSOURI...

CITY           SKY/WX    TMP DP  RH WIND       PRES   REMARKS
KANSAS CTY INT MOSUNNY   58  29  33 E10       30.39F
KANSAS C DTWN  SUNNY     60  30  32 NE8       30.38F
LEE`S SUMMIT   SUNNY     57  30  35 E8        30.39F
ST JOSEPH      SUNNY     59  30  33 NE7       30.39F
CHILLICOTHE      N/A     58  30  34 MISG      30.42F
KIRKSVILLE     SUNNY     56  30  37 N8        30.43F

$$
MOZ066>068-077>081-088>096-101>105-192300-
...SOUTHWEST MISSOURI...

CITY           SKY/WX    TMP DP  RH WIND       PRES   REMARKS
SPRINGFIELD    SUNNY     56  31  38 NE14      30.36S
JOPLIN         SUNNY     56  33  42 N14G21    30.36F
BRANSON        MOSUNNY   55  28  35 NE9       30.35F

$$
MOZ032>034-039>042-045>050-055>058-069>072-192300-
...CENTRAL MISSOURI...

CITY           SKY/WX    TMP DP  RH WIND       PRES   REMARKS
COLUMBIA       SUNNY     57  28  33 NE13      30.40F
JEFFERSON CITY SUNNY     57  28  33 N5        30.40F
ROLLA          SUNNY     54  30  40 N8        30.38F
SEDALIA        SUNNY     57  32  38 NE8G17    30.41F
WHITEMAN AFB   MOSUNNY   56  30  38 NE8       30.36F
WARRENSBURG    SUNNY     55  30  38 NE6       30.40F
OSAGE BEACH    SUNNY     56  31  38 NE12G17   30.39F

$$
MOZ051-052-059>065-192300-
...EAST CENTRAL MISSOURI...

CITY           SKY/WX    TMP DP  RH WIND       PRES   REMARKS
ST LOUIS INTL  MOSUNNY   55  31  39 NE6       30.40S
SPIRIT OF STL  MOSUNNY   55  31  39 VRB5      30.40F
ST CHARLES     SUNNY     57  32  38 NE9G17    30.39F

$$
MOZ072>076-082>087-097>100-106>115-192300-
...SOUTH CENTRAL AND SOUTHEAST MISSOURI...

CITY           SKY/WX    TMP DP  RH WIND       PRES   REMARKS
CAPE GIRARDEAU FAIR      54  34  46 N10G20    30.37F
FARMINGTON       N/A     52  33  48 N9        30.38F
POPLAR BLUFF   FAIR      55  35  47 NE13G18   30.36S
WEST PLAINS    SUNNY     55  29  36 NE10G20   30.35F

$$




USA.gov is the U.S. government's official web portal to all federal, state and local government web resources and services.